Flagstaff, AZ

1:14 AM MST on April 20, 2018 (GMT -0700)
Flagstaff Pulliam

Weather History for KFLG - August, 2013

Change the Weather History Date:

Sunday, August 25, 2013

  Actual Average Record
Temperature  
Mean Temperature 60 °F 63 °F  
Max Temperature 64 °F 78 °F 88 °F (1985)
Min Temperature 55 °F 49 °F 36 °F (2002)
Degree Days  
Heating Degree Days 5 3  
Month to date heating degree days 37 38  
Since 1 July heating degree days 46 70  
Cooling Degree Days 0 1  
Month to date cooling degree days 19 32  
Year to date cooling degree days 144 113  
Growing Degree Days 9 (Base 50)    
Moisture  
Dew Point 55 °F    
Average Humidity 89    
Maximum Humidity 100    
Minimum Humidity 78    
Precipitation  
Precipitation 0.72 in 0.09 in 1.10 in (1931)
Month to date precipitation 1.95 2.56  
Year to date precipitation 14.78 13.64  
Snow  
Snow 0.00 in 0.00 in 0.00 in (2002)
Month to date snowfall 0.0 0.0  
Since 1 July snowfall 0.0 0.0  
Snow Depth 0.00 in    
Sea Level Pressure  
Sea Level Pressure 30.19 in    
Wind  
Wind Speed 2 mph (ENE)    
Max Wind Speed 12 mph    
Max Gust Speed 14 mph    
Visibility 7 miles    
Events Rain    
T = Trace of Precipitation, MM = Missing Value Source: NWS Daily Summary

Daily Weather History Graph

Daily Weather History Graph

Search for Another Location

Airport or City:

Astronomy

Aug. 25, 2013 Rise Set
Actual Time 5:54 AM MST 7:02 PM MST
Civil Twilight 5:28 AM MST 7:28 PM MST
Nautical Twilight 4:56 AM MST 7:59 PM MST
Astronomical Twilight 4:24 AM MST 8:32 PM MST
Moon 9:50 PM MST (8/25) 10:46 AM MST (8/25)
Length of Visible Light 14h 00m
Length of Day
13h 08m
Waning Gibbous, 75% of the Moon is Illuminated
Aug 25
Waning Gibbous
Aug 28
Last Quarter
Sep 5
New
Sep 12
First Quarter
Sep 19
Full

Hourly Weather History & Observations

Time (MST) Temp. Dew Point Humidity Pressure Visibility Wind Dir Wind Speed Gust Speed Precip Events Conditions
12:57 AM 57.9 °F 53.1 °F 84% 30.05 in 10.0 mi Calm Calm - N/A   Clear
1:57 AM 57.0 °F 53.1 °F 87% 30.03 in 10.0 mi Calm Calm - N/A   Overcast
2:57 AM 57.0 °F 53.1 °F 87% 30.03 in 10.0 mi Calm Calm - 0.00 in Rain Light Rain
3:57 AM 57.0 °F 54.0 °F 89% 30.02 in 10.0 mi Calm Calm - N/A   Overcast
4:57 AM 55.9 °F 55.0 °F 97% 30.03 in 10.0 mi Calm Calm - 0.01 in   Overcast
5:57 AM 55.9 °F 54.0 °F 93% 30.05 in 8.0 mi Calm Calm - 0.01 in Rain Light Rain
6:57 AM 55.9 °F 53.1 °F 90% 30.09 in 5.0 mi Calm Calm - 0.03 in Rain Light Rain
7:33 AM 55.4 °F 53.6 °F 94% 30.35 in 1.8 mi Calm Calm - 0.07 in Rain Rain
7:45 AM 55.4 °F 53.6 °F 94% 30.35 in 2.5 mi Calm Calm - 0.11 in Rain Rain
7:57 AM 55.0 °F 54.0 °F 96% 30.12 in 3.0 mi Calm Calm - 0.15 in Rain Rain
8:10 AM 55.4 °F 53.6 °F 94% 30.36 in 2.5 mi Calm Calm - 0.06 in Rain Rain
8:38 AM 55.4 °F 53.6 °F 94% 30.36 in 4.0 mi Calm Calm - 0.18 in Rain Rain
8:57 AM 55.0 °F 54.0 °F 96% 30.12 in 5.0 mi NNE 3.5 mph - 0.22 in Rain Rain
9:28 AM 55.4 °F 55.4 °F 100% 30.36 in 3.0 mi Calm Calm - 0.03 in Rain Light Rain
9:55 AM 55.4 °F 53.6 °F 94% 30.37 in 1.8 mi Calm Calm - 0.08 in Rain Rain
9:57 AM 55.9 °F 54.0 °F 93% 30.12 in 1.8 mi East 3.5 mph - 0.10 in Rain Heavy Rain
10:07 AM 55.4 °F 55.4 °F 100% 30.36 in 3.0 mi ENE 4.6 mph - 0.05 in Rain Rain
10:19 AM 55.4 °F 53.6 °F 94% 30.37 in 2.0 mi Calm Calm - 0.10 in Rain Heavy Rain
10:36 AM 55.4 °F 53.6 °F 94% 30.36 in 6.0 mi NE 3.5 mph - 0.16 in Rain Light Rain
10:57 AM 57.9 °F 54.0 °F 87% 30.12 in 10.0 mi Calm Calm - 0.16 in   Overcast
11:57 AM 60.1 °F 55.0 °F 83% 30.12 in 10.0 mi Calm Calm - 0.00 in   Overcast
12:57 PM 63.0 °F 55.0 °F 75% 30.09 in 10.0 mi SW 5.8 mph - 0.00 in   Mostly Cloudy
1:57 PM 61.0 °F 55.9 °F 83% 30.11 in 10.0 mi WSW 5.8 mph - 0.00 in Rain Light Rain
2:35 PM 60.8 °F 57.2 °F 88% 30.35 in 10.0 mi SSW 6.9 mph - 0.01 in   Overcast
2:57 PM 61.0 °F 57.0 °F 87% 30.10 in 10.0 mi SW 9.2 mph - 0.01 in Rain Light Rain
3:18 PM 60.8 °F 55.4 °F 82% 30.35 in 10.0 mi SW 11.5 mph - 0.00 in   Overcast
3:57 PM 60.1 °F 55.0 °F 83% 30.09 in 10.0 mi West 4.6 mph - 0.00 in   Overcast
4:57 PM 60.1 °F 54.0 °F 80% 30.09 in 10.0 mi Calm Calm - N/A   Overcast
5:57 PM 60.1 °F 53.1 °F 78% 30.08 in 10.0 mi Calm Calm - N/A   Overcast
6:57 PM 59.0 °F 55.0 °F 87% 30.10 in 10.0 mi Calm Calm - N/A   Overcast
7:57 PM 57.9 °F 55.0 °F 90% 30.13 in 10.0 mi Calm Calm - 0.00 in   Overcast
8:57 PM 57.9 °F 55.9 °F 93% 30.14 in 10.0 mi ENE 4.6 mph - N/A   Overcast
9:08 PM 57.2 °F 55.4 °F 94% 30.38 in 10.0 mi ENE 3.5 mph - N/A   Overcast
9:29 PM 57.2 °F 55.4 °F 94% 30.39 in 10.0 mi ENE 3.5 mph - N/A   Overcast
9:57 PM 57.9 °F 55.9 °F 93% 30.15 in 10.0 mi NE 8.1 mph - N/A   Overcast
10:57 PM 57.0 °F 55.9 °F 96% 30.14 in 10.0 mi East 5.8 mph - 0.00 in   Overcast
11:57 PM 57.0 °F 55.9 °F 96% 30.13 in 5.0 mi ENE 5.8 mph - 0.03 in Rain Light Rain